EW1855 Weather Reports


time (UTC)temp
C
wind
direction
speed
KPH
gust
KPH
rain 1hr
cm
rain 24hr
cm
rain mn
cm
humidity
%
barometer
mb
20260504214535 17 203 1.6 14.5 0.00 0.00 0.00 30 1008.4
20260504213047 16 87 3.2 9.7 0.00 0.00 0.00 30 1008.5
20260504211537 15 108 6.4 14.5 0.00 0.00 0.00 36 1008.9
20260504210033 14 142 9.7 20.9 0.00 0.00 0.00 41 1009.2
20260504204532 15 234 25.7 35.4 0.00 0.00 0.00 35 1009.5
20260504203044 16 301 8.0 27.4 0.00 0.00 0.00 35 1009.3
20260504201531 17 347 9.7 20.9 0.00 0.00 0.00 31 1008.9
20260504200030 17 270 6.4 16.1 0.00 0.00 0.00 26 1008.5
20260504194537 17 68 6.4 12.9 0.00 0.00 0.00 26 1008.6
20260504193027 17 70 4.8 9.7 0.00 0.00 0.00 30 1008.7
20260504191535 18 44 3.2 9.7 0.00 0.00 0.00 28 1009.1
20260504190023 17 6 3.2 12.9 0.00 0.00 0.00 30 1009.3
20260504184521 17 249 8.0 11.3 0.00 0.00 0.00 29 1009.4
20260504183019 17 240 1.6 12.9 0.00 0.00 0.00 27 1009.6
20260504181518 17 242 3.2 9.7 0.00 0.00 0.00 31 1009.8
20260504180019 17 141 4.8 8.0 0.00 0.00 0.00 29 1009.9
20260504174510 16 134 1.6 4.8 0.00 0.00 0.00 44 1010.0
20260504173006 14 235 3.2 9.7 0.00 0.00 0.00 52 1010.2
20260504171502 13 179 4.8 11.3 0.00 0.00 0.00 53 1010.3
20260504100111 3 38 0.0 1.6 0.00 0.00 0.00 67 1011.5
20260504081551 5 137 0.0 1.6 0.00 0.00 0.00 65 1011.8
20260504044526 10 134 4.8 8.0 0.00 0.00 0.00 45 1012.5
20260504043027 12 72 6.4 9.7 0.00 0.00 0.00 39 1012.5
20260504041525 11 65 11.3 11.3 0.00 0.00 0.00 40 1012.5
20260504040039 12 70 8.0 11.3 0.00 0.00 0.00 36 1012.5
20260504034525 13 91 8.0 11.3 0.00 0.00 0.00 35 1012.4
20260504033023 13 86 8.0 11.3 0.00 0.00 0.00 34 1012.4
20260504031523 13 63 9.7 11.3 0.00 0.00 0.00 33 1012.2
20260504030022 13 91 3.2 9.7 0.00 0.00 0.00 32 1012.0
20260504024521 13 136 6.4 9.7 0.00 0.00 0.00 31 1012.0
20260504023020 15 115 6.4 8.0 0.00 0.00 0.00 27 1011.8
20260504021520 16 108 4.8 6.4 0.00 0.00 0.00 27 1011.6
20260504020019 17 271 0.0 8.0 0.00 0.00 0.00 26 1011.7
20260504014524 17 278 11.3 17.7 0.00 0.00 0.00 25 1011.7
20260504013019 17 291 19.3 22.5 0.00 0.00 0.00 24 1011.8
20260504011516 17 261 9.7 19.3 0.00 0.00 0.00 29 1011.9
20260504010015 17 273 14.5 24.1 0.00 0.00 0.00 28 1011.8
20260504004514 18 257 19.3 25.7 0.00 0.00 0.00 22 1012.0
20260504003012 18 255 14.5 25.7 0.00 0.00 0.00 24 1012.0
20260504001511 18 282 20.9 25.7 0.00 0.00 0.00 24 1012.1
20260504000011 18 261 14.5 27.4 0.00 0.00 0.00 22 1012.2
20260503234509 19 293 6.4 27.4 0.00 0.00 0.00 20 1012.3
20260503233007 18 280 16.1 27.4 0.00 0.00 0.00 19 1012.3
20260503231507 19 283 25.7 40.2 0.00 0.00 0.00 20 1012.3
20260503230006 18 295 11.3 32.2 0.00 0.00 0.00 20 1012.5
20260503224507 18 238 25.7 40.2 0.00 0.00 0.00 19 1012.6
20260503223002 18 261 16.1 38.6 0.00 0.00 0.00 18 1012.7
20260503221501 18 241 27.4 37.0 0.00 0.00 0.00 21 1012.8
20260503220059 18 243 19.3 38.6 0.00 0.00 0.00 22 1013.1